Location: Hohe Wand Waldeggerhaus
(47.8500°N, 16.0440°E)
Time: 08:21:42
(UTC+02:00)

Envisat - Pass Details

Date: 24 May 2024
Orbit: 762 x 764 km, 98.3° (Epoch: 13 June)

Event Time Altitude Azimuth Distance (km) Brightness Sun altitude
Rises 02:54:38 0° 29° (NNE) 3,238 8.1 -16.1°
Reaches altitude 10° 02:57:57 10° 52° (NE) 2,305 6.6 -15.8°
Maximum altitude 03:00:54 15° 88° (E) 1,949 5.5 -15.5°
Drops below altitude 10° 03:03:50 10° 124° (SE) 2,295 5.4 -15.3°
Sets 03:07:06 0° 147° (SSE) 3,214 6.0 -15.0°
